sat.trackr.live / text

‹ back to catalog

STARLINK-35058

NORAD 65394 · 2025-191R

PAYLOAD ACTIVE UNKNOWN

§ Identity

Operator
Country
US
Launch date
2025-08-30
Launch site
AFWTR
Launch vehicle
Mass (kg)
RCS (m²)

Purposes: comms

External: N2YO · Heavens-Above · Gunter

§ Orbital elements

Epoch: 2026-09-20T13:23:39.417504Z

Period
93.91 min
Inclination
97.2850°
Eccentricity
0.0002356
Mean motion
15.33453351 rev/d
Perigee alt
463.9 km
Apogee alt
467.1 km
Semi-major
6,843.7 km
B*
3.0946e-4
RAAN
129.5254°
Arg perigee
60.3341°
Mean anomaly
299.8136°
Rev number
5,964

§ Raw data

STARLINK-350581 65394U 25191R   26263.55809511  .00009932  00000+0  30946-3 0  99952 65394  97.2850 129.5254 0002356  60.3341 299.8136 15.33453351 59646

JSON: /api/v1/satellites/65394 · /tle

For live sub-satellite position, see the globe view (requires WebGL).

§ Visibility from observer

Set your observer location to see the next 7 days of passes ≥ 10°. The values pass through the URL so the page stays shareable.

No JS? Fill the form by hand. The geolocation button needs JavaScript.